This is the latest recevied weather packets stored in our database for station/object NO3U. If no packets are shown the sender has not sent any weather packets the latest 10 day(s).
| Time | Temp. | Humidity | Pressure | Rain* | Wind** | Luminosity | Snow |
|---|---|---|---|---|---|---|---|
| 1777342035 | 17.78° C | 48% | 1016.6 hPa | 0 mm | - | 0 W/m² | - |
| 1777341731 | 17.78° C | 49% | 1016.8 hPa | 0 mm | - | 0 W/m² | - |
| 1777341427 | 18.33° C | 49% | 1016.7 hPa | 0 mm | - | 0 W/m² | - |
| 1777341123 | 18.33° C | 46% | 1016.7 hPa | 0 mm | - | 0 W/m² | - |
| 1777340820 | 18.33° C | 48% | 1016.8 hPa | 0 mm | - | 0 W/m² | - |
| 1777340519 | 18.33° C | 46% | 1016.7 hPa | 0 mm | - | 0 W/m² | - |
| 1777340215 | 18.33° C | 46% | 1016.8 hPa | 0 mm | - | 0 W/m² | - |
| 1777339912 | 18.33° C | 46% | 1016.9 hPa | 0 mm | - | 0 W/m² | - |
| 1777339610 | 18.89° C | 47% | 1017 hPa | 0 mm | - | 0 W/m² | - |
| 1777339307 | 18.89° C | 46% | 1017 hPa | 0 mm | - | 0 W/m² | - |
| 1777339005 | 18.89° C | 46% | 1017.1 hPa | 0 mm | - | 0 W/m² | - |
| 1777338702 | 18.89° C | 46% | 1017 hPa | 0 mm | - | 0 W/m² | - |
| 1777338400 | 18.89° C | 47% | 1017.3 hPa | 0 mm | - | 0 W/m² | - |
| 1777338096 | 18.89° C | 48% | 1017.4 hPa | 0 mm | - | 0 W/m² | - |
| 1777337792 | 18.89° C | 47% | 1017.6 hPa | 0 mm | - | 0 W/m² | - |
| 1777337490 | 18.89° C | 47% | 1017.4 hPa | 0 mm | - | 0 W/m² | - |
| 1777337186 | 18.89° C | 49% | 1017.5 hPa | 0 mm | - | 0 W/m² | - |
| 1777336884 | 18.89° C | 46% | 1017.5 hPa | 0 mm | - | 0 W/m² | - |
| 1777336583 | 18.33° C | 52% | 1017.6 hPa | 0 mm | - | 0 W/m² | - |
| 1777336281 | 18.89° C | 49% | 1017.8 hPa | 0 mm | - | 0 W/m² | - |
| 1777335978 | 18.89° C | 48% | 1017.8 hPa | 0 mm | - | 0 W/m² | - |
| 1777335674 | 19.44° C | 47% | 1017.7 hPa | 0 mm | - | 1 W/m² | - |
| 1777335371 | 19.44° C | 46% | 1017.8 hPa | 0 mm | - | 1 W/m² | - |
| 1777335069 | 19.44° C | 46% | 1017.7 hPa | 0 mm | - | 2 W/m² | - |
| 1777334766 | 19.44° C | 46% | 1017.5 hPa | 0 mm | - | 3 W/m² | - |
* Rain latest hour (hover to see other rain measurements)
** Current wind speed in m/s (hover to see current wind gust speed)